This is the latest recevied weather packets stored in our database for station/object KK7KHO. If no packets are shown the sender has not sent any weather packets the latest 10 day(s).
| Time | Temp. | Humidity | Pressure | Rain* | Wind** | Luminosity | Snow |
|---|---|---|---|---|---|---|---|
| 1777663516 | 16.67° C | 81% | 1015.9 hPa | 0 mm | - | 611 W/m² | - |
| 1777663215 | 16.11° C | 81% | 1015.9 hPa | 0 mm | - | 498 W/m² | - |
| 1777662911 | 16.67° C | 79% | 1015.8 hPa | 0 mm | - | 338 W/m² | - |
| 1777662609 | 16.11° C | 80% | 1015.9 hPa | 0 mm | - | 352 W/m² | - |
| 1777662304 | 16.67° C | 80% | 1015.9 hPa | 0 mm | - | 458 W/m² | - |
| 1777662000 | 16.67° C | 81% | 1015.9 hPa | 0 mm | - | 529 W/m² | - |
| 1777661696 | 16.11° C | 82% | 1016 hPa | 0 mm | - | 425 W/m² | - |
| 1777661392 | 16.67° C | 80% | 1016 hPa | 0 mm | - | 474 W/m² | - |
| 1777661088 | 16.67° C | 80% | 1016.2 hPa | 0 mm | - | 466 W/m² | - |
| 1777660783 | 16.11° C | 82% | 1016.1 hPa | 0 mm | - | 556 W/m² | - |
| 1777660479 | 16.67° C | 80% | 1016.2 hPa | 0 mm | - | 540 W/m² | - |
| 1777660176 | 15.56° C | 82% | 1016.4 hPa | 0 mm | - | 618 W/m² | - |
| 1777659868 | 16.11° C | 81% | 1016.2 hPa | 0 mm | - | 584 W/m² | - |
| 1777659564 | 16.11° C | 82% | 1016.2 hPa | 0 mm | - | 599 W/m² | - |
| 1777659262 | 15.56° C | 83% | 1016.3 hPa | 0 mm | - | 586 W/m² | - |
| 1777658959 | 15.56° C | 84% | 1016.2 hPa | 0 mm | - | 564 W/m² | - |
| 1777658655 | 15.56° C | 83% | 1016.5 hPa | 0 mm | - | 580 W/m² | - |
| 1777658352 | 15° C | 84% | 1016.5 hPa | 0 mm | - | 557 W/m² | - |
| 1777658049 | 15° C | 84% | 1016.5 hPa | 0 mm | - | 493 W/m² | - |
| 1777657746 | 15° C | 85% | 1016.5 hPa | 0 mm | - | 541 W/m² | - |
| 1777657443 | 15° C | 86% | 1016.4 hPa | 0 mm | - | 510 W/m² | - |
| 1777657141 | 15° C | 85% | 1016.6 hPa | 0 mm | - | 419 W/m² | - |
| 1777656838 | 15° C | 84% | 1016.6 hPa | 0 mm | - | 421 W/m² | - |
| 1777656533 | 15.56° C | 83% | 1016.3 hPa | 0 mm | - | 407 W/m² | - |
| 1777656228 | 15.56° C | 82% | 1016.5 hPa | 0 mm | - | 450 W/m² | - |
* Rain latest hour (hover to see other rain measurements)
** Current wind speed in m/s (hover to see current wind gust speed)